Simultaneous Nadir Overpasses (SNOs) Predictions

Prediction of SNOs between GOES-14 and AQUA Satellite Orbit:

Table of predicted SNOs for the next 14.0 days since TLE Epoch: 12/1/2024
Index Date Time (GOES-14) GOES-14 Lat,Lon AQUA Lat,Lon Distance(km) Time Diff (sec)
1 12/02/2024 09:19:45 0.06,-108.55 -0.80,-104.42 469.32 80
2 12/02/2024 21:42:09 -0.08,-108.48 -0.21,-109.19 80.56 80
3 12/04/2024 21:20:50 -0.07,-108.47 0.77,-104.63 436.66 80
4 12/05/2024 09:43:04 0.10,-108.53 0.25,-109.37 94.79 80
5 12/07/2024 09:21:44 0.08,-108.51 -0.73,-104.79 423.19 80
6 12/07/2024 21:44:05 -0.10,-108.44 -0.33,-109.55 126.27 80
7 12/09/2024 21:22:42 -0.09,-108.42 0.65,-104.97 392.82 80
8 12/10/2024 09:44:56 0.12,-108.49 0.38,-109.70 137.99 80
9 12/12/2024 09:23:31 0.11,-108.47 -0.60,-105.11 381.78 80
10 12/12/2024 21:45:52 -0.13,-108.40 -0.46,-109.87 167.33 80
11 12/14/2024 21:24:25 -0.13,-108.37 0.53,-105.27 352.95 80
